Time,TemperatureF,DewpointF,PressureIn,WindDirection,WindDirectionDegrees,WindSpeedMPH,WindSpeedGustMPH,Humidity,HourlyPrecipIn,Conditions,Clouds,dailyrainin,SolarRadiationWatts/m^2,SoftwareType,DateUTC
2013-05-25 00:02:00,72.0,67.0,30.06,WNW,294,0.0,-999.0,84,-99.99,,,0.00,0,weatherlink.com 1.10,2013-05-25 04:02:00,
2013-05-25 00:17:00,71.6,67.0,30.06,WNW,294,0.0,-999.0,85,-99.99,,,0.00,0,weatherlink.com 1.10,2013-05-25 04:17:00,
2013-05-25 00:32:00,71.5,67.0,30.06,WNW,294,0.0,-999.0,86,-99.99,,,0.00,0,weatherlink.com 1.10,2013-05-25 04:32:00,
2013-05-25 00:47:00,71.3,67.0,30.06,WNW,294,0.0,-999.0,87,-99.99,,,0.00,0,weatherlink.com 1.10,2013-05-25 04:47:00,
2013-05-25 01:02:00,70.6,67.0,30.05,WNW,294,0.0,-999.0,89,-99.99,,,0.00,0,weatherlink.com 1.10,2013-05-25 05:02:00,
2013-05-25 01:17:00,70.6,67.0,30.05,WNW,294,0.0,-999.0,89,-99.99,,,0.00,0,weatherlink.com 1.10,2013-05-25 05:17:00,
2013-05-25 01:32:00,71.1,67.0,30.05,NE,45,0.0,-999.0,86,-99.99,,,0.00,0,weatherlink.com 1.10,2013-05-25 05:32:00,
2013-05-25 01:47:00,71.5,67.0,30.05,NE,46,0.0,-999.0,86,-99.99,,,0.00,0,weatherlink.com 1.10,2013-05-25 05:47:00,
2013-05-25 02:02:00,71.8,68.0,30.05,NE,53,0.0,-999.0,86,-99.99,,,0.00,0,weatherlink.com 1.10,2013-05-25 06:02:00,
2013-05-25 02:17:00,71.5,67.0,30.05,NE,51,0.0,-999.0,86,-99.99,,,0.00,0,weatherlink.com 1.10,2013-05-25 06:17:00,
2013-05-25 02:32:00,71.8,68.0,30.05,ENE,65,2.0,-999.0,86,-99.99,,,0.00,0,weatherlink.com 1.10,2013-05-25 06:32:00,
2013-05-25 02:47:00,71.6,68.0,30.05,ENE,75,0.0,-999.0,87,-99.99,,,0.00,0,weatherlink.com 1.10,2013-05-25 06:47:00,
2013-05-25 03:02:00,71.3,67.0,30.05,ENE,75,0.0,-999.0,87,-99.99,,,0.00,0,weatherlink.com 1.10,2013-05-25 07:02:00,
2013-05-25 03:17:00,70.6,67.0,30.05,ENE,75,0.0,-999.0,89,-99.99,,,0.00,0,weatherlink.com 1.10,2013-05-25 07:17:00,
2013-05-25 03:32:00,70.4,68.0,30.04,ENE,75,0.0,-999.0,91,-99.99,,,0.00,0,weatherlink.com 1.10,2013-05-25 07:32:00,
2013-05-25 03:47:00,70.1,67.0,30.04,ENE,75,0.0,-999.0,91,-99.99,,,0.00,0,weatherlink.com 1.10,2013-05-25 07:47:00,
2013-05-25 04:02:00,69.8,67.0,30.04,ENE,75,0.0,-999.0,92,-99.99,,,0.00,0,weatherlink.com 1.10,2013-05-25 08:02:00,
2013-05-25 04:17:00,69.6,68.0,30.04,ENE,75,0.0,-999.0,93,-99.99,,,0.00,0,weatherlink.com 1.10,2013-05-25 08:17:00,
2013-05-25 04:32:00,69.8,68.0,30.04,ENE,75,0.0,-999.0,94,-99.99,,,0.00,0,weatherlink.com 1.10,2013-05-25 08:32:00,
2013-05-25 04:47:00,69.9,68.0,30.04,ENE,75,0.0,-999.0,94,-99.99,,,0.00,0,weatherlink.com 1.10,2013-05-25 08:47:00,
2013-05-25 05:02:00,69.8,68.0,30.04,ENE,75,0.0,-999.0,95,-99.99,,,0.00,0,weatherlink.com 1.10,2013-05-25 09:02:00,
2013-05-25 05:17:00,69.9,69.0,30.04,ENE,75,0.0,-999.0,95,-99.99,,,0.00,0,weatherlink.com 1.10,2013-05-25 09:17:00,
2013-05-25 05:32:00,69.9,69.0,30.04,ENE,57,0.0,-999.0,96,-99.99,,,0.00,0,weatherlink.com 1.10,2013-05-25 09:32:00,
2013-05-25 05:47:00,69.9,69.0,30.05,ENE,61,4.0,-999.0,96,-99.99,,,0.00,0,weatherlink.com 1.10,2013-05-25 09:47:00,
2013-05-25 06:02:00,69.9,69.0,30.05,NE,52,0.0,-999.0,96,-99.99,,,0.00,0,weatherlink.com 1.10,2013-05-25 10:02:00,
2013-05-25 06:17:00,69.6,69.0,30.06,ENE,57,0.0,-999.0,97,-99.99,,,0.00,0,weatherlink.com 1.10,2013-05-25 10:17:00,
2013-05-25 06:32:00,69.3,69.0,30.07,ENE,57,2.0,-999.0,97,-99.99,,,0.00,0,weatherlink.com 1.10,2013-05-25 10:32:00,
2013-05-25 06:47:00,69.4,69.0,30.08,ENE,57,0.0,-999.0,98,-99.99,,,0.00,12,weatherlink.com 1.10,2013-05-25 10:47:00,
2013-05-25 07:02:00,69.8,69.0,30.09,ENE,57,0.0,-999.0,98,-99.99,,,0.00,25,weatherlink.com 1.10,2013-05-25 11:02:00,
2013-05-25 07:17:00,70.3,70.0,30.09,ENE,57,2.0,-999.0,98,-99.99,,,0.00,60,weatherlink.com 1.10,2013-05-25 11:17:00,
2013-05-25 07:32:00,71.1,70.0,30.09,NE,54,1.0,-999.0,97,-99.99,,,0.00,102,weatherlink.com 1.10,2013-05-25 11:32:00,
2013-05-25 07:47:00,72.3,71.0,30.09,NE,53,0.0,-999.0,94,-99.99,,,0.00,149,weatherlink.com 1.10,2013-05-25 11:47:00,
2013-05-25 08:02:00,73.7,71.0,30.10,East,90,0.0,-999.0,91,-99.99,,,0.00,188,weatherlink.com 1.10,2013-05-25 12:02:00,
2013-05-25 08:17:00,74.9,71.0,30.11,NE,38,0.0,-999.0,86,-99.99,,,0.00,243,weatherlink.com 1.10,2013-05-25 12:17:00,
2013-05-25 08:32:00,76.3,70.0,30.11,ENE,78,3.0,-999.0,82,-99.99,,,0.00,297,weatherlink.com 1.10,2013-05-25 12:32:00,
2013-05-25 08:47:00,77.6,70.0,30.12,ENE,61,2.0,-999.0,77,-99.99,,,0.00,348,weatherlink.com 1.10,2013-05-25 12:47:00,
2013-05-25 09:02:00,78.6,68.0,30.12,East,80,5.0,-999.0,71,-99.99,,,0.00,403,weatherlink.com 1.10,2013-05-25 13:02:00,
2013-05-25 09:17:00,79.8,68.0,30.13,ESE,117,8.0,-999.0,67,-99.99,,,0.00,457,weatherlink.com 1.10,2013-05-25 13:17:00,
2013-05-25 09:32:00,79.9,66.0,30.13,East,79,10.0,-999.0,62,-99.99,,,0.00,504,weatherlink.com 1.10,2013-05-25 13:32:00,
2013-05-25 09:47:00,80.5,65.0,30.13,NNE,31,4.0,-999.0,60,-99.99,,,0.00,557,weatherlink.com 1.10,2013-05-25 13:47:00,
2013-05-25 10:04:00,81.4,64.0,30.14,NE,49,10.0,-999.0,56,-99.99,,,0.00,608,weatherlink.com 1.10,2013-05-25 14:04:00,
2013-05-25 10:17:00,81.6,63.0,30.14,ESE,107,7.0,-999.0,54,-99.99,,,0.00,647,weatherlink.com 1.10,2013-05-25 14:17:00,
2013-05-25 10:32:00,82.4,64.0,30.14,East,87,6.0,-999.0,54,-99.99,,,0.00,696,weatherlink.com 1.10,2013-05-25 14:32:00,
2013-05-25 10:47:00,82.4,63.0,30.14,East,94,11.0,-999.0,52,-99.99,,,0.00,738,weatherlink.com 1.10,2013-05-25 14:47:00,
2013-05-25 11:02:00,82.8,63.0,30.15,ENE,57,4.0,-999.0,52,-99.99,,,0.00,782,weatherlink.com 1.10,2013-05-25 15:02:00,
2013-05-25 11:17:00,83.6,65.0,30.15,East,101,4.0,-999.0,53,-99.99,,,0.00,816,weatherlink.com 1.10,2013-05-25 15:17:00,
2013-05-25 11:35:00,84.0,63.0,30.15,ENE,69,5.0,-999.0,49,-99.99,,,0.00,853,weatherlink.com 1.10,2013-05-25 15:35:00,
2013-05-25 11:47:00,84.1,62.0,30.15,ENE,57,0.0,-999.0,48,-99.99,,,0.00,879,weatherlink.com 1.10,2013-05-25 15:47:00,
2013-05-25 12:02:00,84.1,62.0,30.15,NNE,30,3.0,-999.0,48,-99.99,,,0.00,902,weatherlink.com 1.10,2013-05-25 16:02:00,
2013-05-25 12:17:00,84.3,64.0,30.15,ENE,59,7.0,-999.0,51,-99.99,,,0.00,935,weatherlink.com 1.10,2013-05-25 16:17:00,
2013-05-25 12:32:00,79.8,65.0,30.15,NE,51,7.0,-999.0,61,-99.99,,,0.00,983,weatherlink.com 1.10,2013-05-25 16:32:00,
2013-05-25 12:47:00,77.7,67.0,30.15,ENE,63,4.0,-999.0,69,-99.99,,,0.00,1049,weatherlink.com 1.10,2013-05-25 16:47:00,
2013-05-25 13:04:00,76.7,67.0,30.14,East,93,5.0,-999.0,72,-99.99,,,0.00,1062,weatherlink.com 1.10,2013-05-25 17:04:00,
2013-05-25 13:19:00,76.1,66.0,30.14,East,86,8.0,-999.0,71,-99.99,,,0.00,1021,weatherlink.com 1.10,2013-05-25 17:19:00,
2013-05-25 13:32:00,77.0,67.0,30.13,ENE,67,4.0,-999.0,71,-99.99,,,0.00,1065,weatherlink.com 1.10,2013-05-25 17:32:00,
2013-05-25 13:47:00,76.7,66.0,30.12,ESE,123,8.0,-999.0,70,-99.99,,,0.00,1130,weatherlink.com 1.10,2013-05-25 17:47:00,
2013-05-25 14:04:00,75.6,66.0,30.12,ESE,115,6.0,-999.0,73,-99.99,,,0.00,1116,weatherlink.com 1.10,2013-05-25 18:04:00,
2013-05-25 14:17:00,75.6,65.0,30.12,ENE,71,2.0,-999.0,69,-99.99,,,0.00,1114,weatherlink.com 1.10,2013-05-25 18:17:00,
2013-05-25 14:34:00,75.1,66.0,30.11,ENE,57,6.0,-999.0,74,-99.99,,,0.00,1150,weatherlink.com 1.10,2013-05-25 18:34:00,
2013-05-25 14:47:00,75.1,66.0,30.11,ENE,70,0.0,-999.0,72,-99.99,,,0.00,278,weatherlink.com 1.10,2013-05-25 18:47:00,
2013-05-25 15:02:00,76.0,66.0,30.10,ENE,75,8.0,-999.0,71,-99.99,,,0.00,1085,weatherlink.com 1.10,2013-05-25 19:02:00,
2013-05-25 15:17:00,76.3,65.0,30.10,East,85,8.0,-999.0,69,-99.99,,,0.00,1028,weatherlink.com 1.10,2013-05-25 19:17:00,
2013-05-25 15:32:00,80.1,62.0,30.10,ENE,60,6.0,-999.0,55,-99.99,,,0.00,207,weatherlink.com 1.10,2013-05-25 19:32:00,
2013-05-25 15:47:00,85.1,63.0,30.09,ENE,74,5.0,-999.0,47,-99.99,,,0.00,997,weatherlink.com 1.10,2013-05-25 19:47:00,
2013-05-25 16:04:00,85.7,65.0,30.09,ESE,108,7.0,-999.0,51,-99.99,,,0.00,206,weatherlink.com 1.10,2013-05-25 20:04:00,
2013-05-25 16:17:00,85.5,65.0,30.09,East,86,4.0,-999.0,51,-99.99,,,0.00,891,weatherlink.com 1.10,2013-05-25 20:17:00,
2013-05-25 16:32:00,85.3,66.0,30.08,East,86,7.0,-999.0,52,-99.99,,,0.00,810,weatherlink.com 1.10,2013-05-25 20:32:00,
2013-05-25 16:47:00,85.7,65.0,30.08,ENE,62,4.0,-999.0,50,-99.99,,,0.00,731,weatherlink.com 1.10,2013-05-25 20:47:00,
2013-05-25 17:04:00,86.1,66.0,30.08,East,88,6.0,-999.0,51,-99.99,,,0.00,673,weatherlink.com 1.10,2013-05-25 21:04:00,
2013-05-25 17:17:00,85.5,64.0,30.08,East,79,7.0,-999.0,49,-99.99,,,0.00,645,weatherlink.com 1.10,2013-05-25 21:17:00,
2013-05-25 17:32:00,85.5,65.0,30.08,East,84,7.0,-999.0,50,-99.99,,,0.00,659,weatherlink.com 1.10,2013-05-25 21:32:00,
2013-05-25 17:49:00,85.1,65.0,30.08,East,83,10.0,-999.0,52,-99.99,,,0.00,561,weatherlink.com 1.10,2013-05-25 21:49:00,
2013-05-25 18:02:00,83.6,65.0,30.08,ENE,74,4.0,-999.0,54,-99.99,,,0.00,445,weatherlink.com 1.10,2013-05-25 22:02:00,
2013-05-25 18:17:00,83.8,65.0,30.08,ENE,65,6.0,-999.0,53,-99.99,,,0.00,401,weatherlink.com 1.10,2013-05-25 22:17:00,
2013-05-25 18:32:00,83.2,65.0,30.08,East,81,0.0,-999.0,55,-99.99,,,0.00,346,weatherlink.com 1.10,2013-05-25 22:32:00,
2013-05-25 18:47:00,82.8,65.0,30.08,East,94,7.0,-999.0,55,-99.99,,,0.00,285,weatherlink.com 1.10,2013-05-25 22:47:00,
2013-05-25 19:02:00,82.0,65.0,30.09,NE,44,6.0,-999.0,57,-99.99,,,0.00,207,weatherlink.com 1.10,2013-05-25 23:02:00,
2013-05-25 19:17:00,80.9,65.0,30.09,ENE,78,4.0,-999.0,58,-99.99,,,0.00,148,weatherlink.com 1.10,2013-05-25 23:17:00,
2013-05-25 19:32:00,80.3,65.0,30.10,NNE,33,4.0,-999.0,60,-99.99,,,0.00,84,weatherlink.com 1.10,2013-05-25 23:32:00,
2013-05-25 19:47:00,79.4,65.0,30.10,ENE,71,2.0,-999.0,61,-99.99,,,0.00,23,weatherlink.com 1.10,2013-05-25 23:47:00,
2013-05-25 20:04:00,78.5,65.0,30.11,ENE,67,4.0,-999.0,63,-99.99,,,0.00,9,weatherlink.com 1.10,2013-05-26 00:04:00,
2013-05-25 20:17:00,77.7,65.0,30.11,East,92,6.0,-999.0,64,-99.99,,,0.00,0,weatherlink.com 1.10,2013-05-26 00:17:00,
2013-05-25 20:34:00,76.8,65.0,30.11,NE,55,2.0,-999.0,66,-99.99,,,0.00,0,weatherlink.com 1.10,2013-05-26 00:34:00,
2013-05-25 20:49:00,76.1,65.0,30.12,East,88,1.0,-999.0,68,-99.99,,,0.00,0,weatherlink.com 1.10,2013-05-26 00:49:00,
2013-05-25 21:04:00,75.6,64.0,30.12,East,82,1.0,-999.0,68,-99.99,,,0.00,0,weatherlink.com 1.10,2013-05-26 01:04:00,
2013-05-25 21:17:00,75.1,64.0,30.13,ENE,75,5.0,-999.0,69,-99.99,,,0.00,0,weatherlink.com 1.10,2013-05-26 01:17:00,
2013-05-25 21:34:00,74.4,64.0,30.13,NE,53,2.0,-999.0,71,-99.99,,,0.00,0,weatherlink.com 1.10,2013-05-26 01:34:00,
2013-05-25 21:47:00,73.7,65.0,30.14,ENE,77,0.0,-999.0,73,-99.99,,,0.00,0,weatherlink.com 1.10,2013-05-26 01:47:00,
2013-05-25 22:04:00,73.0,65.0,30.14,ENE,66,1.0,-999.0,75,-99.99,,,0.00,0,weatherlink.com 1.10,2013-05-26 02:04:00,
2013-05-25 22:17:00,72.5,65.0,30.15,ENE,77,0.0,-999.0,76,-99.99,,,0.00,0,weatherlink.com 1.10,2013-05-26 02:17:00,
2013-05-25 22:35:00,71.8,64.0,30.15,ENE,69,2.0,-999.0,77,-99.99,,,0.00,0,weatherlink.com 1.10,2013-05-26 02:35:00,
2013-05-25 22:49:00,71.1,64.0,30.15,ENE,57,0.0,-999.0,78,-99.99,,,0.00,0,weatherlink.com 1.10,2013-05-26 02:49:00,
2013-05-25 23:04:00,70.8,64.0,30.16,ENE,58,1.0,-999.0,79,-99.99,,,0.00,0,weatherlink.com 1.10,2013-05-26 03:04:00,
2013-05-25 23:17:00,70.4,64.0,30.16,ENE,57,0.0,-999.0,80,-99.99,,,0.00,0,weatherlink.com 1.10,2013-05-26 03:17:00,
2013-05-25 23:34:00,69.9,64.0,30.16,ENE,61,2.0,-999.0,80,-99.99,,,0.00,0,weatherlink.com 1.10,2013-05-26 03:34:00,
2013-05-25 23:47:00,69.8,63.0,30.16,NE,51,0.0,-999.0,80,-99.99,,,0.00,0,weatherlink.com 1.10,2013-05-26 03:47:00,